M I D A S
Marine Information and Data Acquisition System
Tripno 1666 of the Zeeleeuw from 2009-03-27 07:38:46 to 2009-03-27 11:29:19
Back to CruiseResearch ActivitiesStationsMapUnderway DataData graphs

EquipmentUnitsComments
TimeDGPSUTC
LatitudeDGPSDM.mWGS84
LongitudeDGPSDM.mWGS84
SpeedMeteo Stationm/sRelative wind speed
DirectionMeteo StationdegRelative wind direction
TemperatureMeteo Stationdeg CelciusAir temperature
PressureMeteo StationPaAtmospheric pressure
HumidityMeteo Station%Relative humidity
Missing or incorrect values are displayed as -999
Metereological data collected by the RV Zeeleeuw from 2009-03-27 07:39:53 to 2009-03-27 11:41:38
                                                                                    Next 1000 lines
Time Latitude Longitude Speed Direction Temperature Pressure Humidity
2009-03-27 07:40:02 51°13.663 2°55.957 6 39 7 99930 69
2009-03-27 07:40:08 51°13.663 2°55.953 7.4 79 7 99930 69
2009-03-27 07:40:13 51°13.664 2°55.949 4.7 25 7 99930 69
2009-03-27 07:40:18 51°13.665 2°55.944 4.8 75 7 99930 69
2009-03-27 07:40:24 51°13.667 2°55.938 5.7 24 7.1 99930 69
2009-03-27 07:40:30 51°13.669 2°55.932 6.7 79 7.1 99930 69
2009-03-27 07:40:35 51°13.671 2°55.926 8.7 43 7.1 99940 69
2009-03-27 07:40:41 51°13.673 2°55.918 6.6 75 7.1 99940 69
2009-03-27 07:40:46 51°13.675 2°55.911 6.8 23 7.1 99930 68
2009-03-27 07:40:51 51°13.677 2°55.904 4.8 77 7.1 99930 68
2009-03-27 07:40:57 51°13.679 2°55.896 4.5 24 7.1 99930 68
2009-03-27 07:41:02 51°13.681 2°55.888 5 74 7.1 99930 68
2009-03-27 07:41:06 51°13.682 2°55.882 3.6 20 7 99930 67
2009-03-27 07:41:12 51°13.684 2°55.873 4.7 44 7 99930 67
2009-03-27 07:41:17 51°13.685 2°55.865 4.1 27 7.1 99930 69
2009-03-27 07:41:22 51°13.687 2°55.858 5.4 76 7.1 99930 69
2009-03-27 07:41:27 51°13.688 2°55.85 4.8 24 7.1 99930 69
2009-03-27 07:41:32 51°13.689 2°55.843 4.3 74 7.1 99930 69
2009-03-27 07:41:37 51°13.69 2°55.836 2.8 20 7.2 99940 69
2009-03-27 07:41:42 51°13.691 2°55.828 2.3 80 7.2 99940 69
2009-03-27 07:41:47 51°13.691 2°55.821 4 25 7.2 99930 68
2009-03-27 07:41:52 51°13.692 2°55.814 2.8 78 7.2 99930 68
2009-03-27 07:41:57 51°13.692 2°55.808 5.9 24 7.2 99930 68
2009-03-27 07:42:02 51°13.693 2°55.801 4 76 7.2 99930 68
2009-03-27 07:42:06 51°13.694 2°55.797 5.6 22 7.2 99930 68
2009-03-27 07:42:12 51°13.694 2°55.789 4.8 79 7.2 99930 68
2009-03-27 07:42:17 51°13.695 2°55.784 3.9 24 7.2 99940 68
2009-03-27 07:42:22 51°13.695 2°55.779 4 75 7.2 99940 68
2009-03-27 07:42:26 51°13.695 2°55.775 4.1 23 7.2 99940 67
2009-03-27 07:42:31 51°13.694 2°55.771 3.3 79 7.2 99940 67
2009-03-27 07:42:36 51°13.694 2°55.768 3.6 24 7.2 99930 67
2009-03-27 07:42:41 51°13.694 2°55.766 3.8 72 7.2 99930 67
2009-03-27 07:42:45 51°13.695 2°55.765 4.6 32 7.2 99930 67
2009-03-27 07:42:50 51°13.695 2°55.765 2.4 44 7.2 99930 67
2009-03-27 07:42:55 51°13.696 2°55.766 2.7 14 7.2 99940 67
2009-03-27 07:43:00 51°13.697 2°55.767 2.1 12 7.2 99940 67
2009-03-27 07:43:05 51°13.698 2°55.768 2 24 7.2 99940 67
2009-03-27 07:43:10 51°13.699 2°55.769 3.2 282 7.2 99940 67
2009-03-27 07:43:15 51°13.7 2°55.771 4.2 264 7.2 99930 67
2009-03-27 07:43:20 51°13.701 2°55.772 1.6 284 7.2 99930 67
2009-03-27 07:43:26 51°13.703 2°55.772 0.8 325 7.2 99930 67
2009-03-27 07:43:31 51°13.703 2°55.772 0.3 287 7.2 99930 67
2009-03-27 07:43:35 51°13.704 2°55.772 2.6 29 7.2 99930 67
2009-03-27 07:43:41 51°13.704 2°55.771 5.4 74 7.2 99930 67
2009-03-27 07:43:46 51°13.704 2°55.77 6 22 7.2 99930 67
2009-03-27 07:43:51 51°13.703 2°55.769 7.9 75 7.2 99930 67
2009-03-27 07:43:55 51°13.702 2°55.768 7.4 22 7.2 99930 67
2009-03-27 07:44:00 51°13.701 2°55.767 5 74 7.2 99930 67
2009-03-27 07:44:05 51°13.7 2°55.766 2.9 268 7.2 99940 66
2009-03-27 07:44:11 51°13.699 2°55.765 2 284 7.2 99940 66
2009-03-27 07:44:16 51°13.699 2°55.764 2.8 25 7.2 99950 66
2009-03-27 07:44:22 51°13.699 2°55.764 3.3 287 7.2 99950 66
2009-03-27 07:44:26 51°13.699 2°55.763 3.5 261 7.2 99940 66
2009-03-27 07:44:31 51°13.7 2°55.763 5 281 7.2 99940 66
2009-03-27 07:44:36 51°13.701 2°55.762 8 24 7.2 99930 66
2009-03-27 07:44:41 51°13.702 2°55.762 4.9 279 7.2 99930 66
2009-03-27 07:44:46 51°13.704 2°55.761 4 23 7.2 99930 66
2009-03-27 07:44:50 51°13.705 2°55.76 7.1 281 7.2 99930 66
2009-03-27 07:44:55 51°13.707 2°55.759 7.4 249 7.2 99930 66
2009-03-27 07:45:01 51°13.71 2°55.757 9.4 281 7.2 99930 66
2009-03-27 07:45:06 51°13.713 2°55.754 7.9 20 7.2 99950 66
2009-03-27 07:45:11 51°13.715 2°55.751 7 281 7.2 99950 66
2009-03-27 07:45:16 51°13.719 2°55.748 7.2 19 7.2 99940 66
2009-03-27 07:45:21 51°13.722 2°55.744 9.8 280 7.2 99940 66
2009-03-27 07:45:26 51°13.726 2°55.74 6.3 20 7.2 99950 66
2009-03-27 07:45:31 51°13.729 2°55.736 9.9 280 7.2 99950 66
2009-03-27 07:45:35 51°13.733 2°55.732 9.1 26 7.2 99950 66
2009-03-27 07:45:40 51°13.737 2°55.727 7.8 279 7.2 99950 66
2009-03-27 07:45:45 51°13.743 2°55.722 7.3 19 7.2 99950 66
2009-03-27 07:45:50 51°13.749 2°55.715 6.1 285 7.2 99950 66
2009-03-27 07:45:54 51°13.754 2°55.709 7.8 26 7.2 99940 66
2009-03-27 07:45:59 51°13.761 2°55.702 5.5 284 7.2 99940 66
2009-03-27 07:46:04 51°13.769 2°55.694 4.8 21 7.2 99930 66
2009-03-27 07:46:09 51°13.777 2°55.686 9.3 283 7.2 99930 66
2009-03-27 07:46:14 51°13.785 2°55.677 6.7 23 7.2 99920 66
2009-03-27 07:46:19 51°13.794 2°55.669 5.2 281 7.2 99920 66
2009-03-27 07:46:23 51°13.801 2°55.662 7.3 315 7.2 99930 66
2009-03-27 07:46:29 51°13.813 2°55.652 7.3 285 7.2 99930 66
2009-03-27 07:46:33 51°13.821 2°55.645 5.7 321 7.2 99930 67
2009-03-27 07:46:38 51°13.83 2°55.637 3.4 283 7.2 99930 67
2009-03-27 07:46:43 51°13.84 2°55.629 6.4 329 7.2 99940 67
2009-03-27 07:46:48 51°13.851 2°55.622 6.7 281 7.2 99940 67
2009-03-27 07:46:53 51°13.861 2°55.613 3.9 318 7.2 99940 67
2009-03-27 07:46:58 51°13.872 2°55.605 7.8 278 7.2 99940 67
2009-03-27 07:47:02 51°13.881 2°55.599 8.5 21 7.2 99940 67
2009-03-27 07:47:08 51°13.894 2°55.589 9 285 7.2 99940 67
2009-03-27 07:47:13 51°13.905 2°55.58 6 323 7.2 99940 67
2009-03-27 07:47:18 51°13.916 2°55.572 6.1 286 7.2 99940 67
2009-03-27 07:47:24 51°13.93 2°55.561 8.6 19 7.2 99930 67
2009-03-27 07:47:30 51°13.943 2°55.551 7.4 283 7.2 99930 67
2009-03-27 07:47:35 51°13.955 2°55.543 5 20 7.2 99920 67
2009-03-27 07:47:41 51°13.969 2°55.533 7.7 282 7.2 99920 67
2009-03-27 07:47:45 51°13.978 2°55.526 8.5 22 7.2 99930 67
2009-03-27 07:47:50 51°13.99 2°55.518 11 282 7.2 99930 67
2009-03-27 07:47:55 51°14.002 2°55.51 8.6 26 7.2 99920 67
2009-03-27 07:48:00 51°14.014 2°55.501 6.4 281 7.2 99920 67
2009-03-27 07:48:05 51°14.025 2°55.493 8.5 244 7.1 99920 67
2009-03-27 07:48:10 51°14.037 2°55.485 7.4 280 7.1 99920 67
2009-03-27 07:48:14 51°14.047 2°55.478 7.1 20 7.1 99930 67
2009-03-27 07:48:19 51°14.059 2°55.469 5.4 284 7.1 99930 67
2009-03-27 07:48:24 51°14.071 2°55.461 6.4 323 7.1 99920 67
2009-03-27 07:48:29 51°14.082 2°55.452 5.1 280 7.1 99920 67
2009-03-27 07:48:34 51°14.094 2°55.443 5.8 20 7.1 99930 67
2009-03-27 07:48:39 51°14.106 2°55.434 6 284 7.1 99930 67
2009-03-27 07:48:44 51°14.117 2°55.425 8.4 24 7.1 99930 67
2009-03-27 07:48:49 51°14.129 2°55.416 8.4 282 7.1 99930 67
2009-03-27 07:48:54 51°14.141 2°55.407 10.1 22 7.1 99930 67
2009-03-27 07:48:59 51°14.152 2°55.397 7.6 282 7.1 99930 67
2009-03-27 07:49:03 51°14.161 2°55.389 8.3 24 7.1 99930 67
2009-03-27 07:49:09 51°14.174 2°55.377 7.4 281 7.1 99930 67
2009-03-27 07:49:13 51°14.183 2°55.368 9.9 20 7.1 99920 67
2009-03-27 07:49:18 51°14.193 2°55.357 12.8 287 7.1 99920 67
2009-03-27 07:49:23 51°14.203 2°55.345 15.1 20 7.1 99920 67
2009-03-27 07:49:28 51°14.213 2°55.332 12.5 281 7.1 99920 67
2009-03-27 07:49:33 51°14.223 2°55.32 13.7 24 7.1 99930 68
2009-03-27 07:49:38 51°14.233 2°55.306 12.9 282 7.1 99930 68
2009-03-27 07:49:42 51°14.241 2°55.295 13.1 27 7.1 99930 69
2009-03-27 07:49:48 51°14.252 2°55.279 10.9 280 7.1 99930 69
2009-03-27 07:49:53 51°14.261 2°55.265 13.1 25 7.2 99920 69
2009-03-27 07:49:58 51°14.271 2°55.25 13.7 281 7.2 99920 69
2009-03-27 07:50:03 51°14.28 2°55.236 14.2 22 7.1 99910 69
2009-03-27 07:50:08 51°14.289 2°55.221 9.5 287 7.1 99910 69
2009-03-27 07:50:13 51°14.298 2°55.206 13 20 7.1 99920 70
2009-03-27 07:50:18 51°14.307 2°55.191 10.8 280 7.1 99920 70
2009-03-27 07:50:23 51°14.316 2°55.176 14.4 23 7.1 99910 69
2009-03-27 07:50:28 51°14.325 2°55.16 17.1 280 7.1 99910 69
2009-03-27 07:50:33 51°14.334 2°55.145 12.5 23 7.1 99900 69
2009-03-27 07:50:38 51°14.343 2°55.129 16.2 283 7.1 99900 69
2009-03-27 07:50:43 51°14.352 2°55.114 13.5 23 7.1 99910 69
2009-03-27 07:50:48 51°14.361 2°55.099 14.6 281 7.1 99910 69
2009-03-27 07:50:53 51°14.37 2°55.083 14.7 23 7 99890 68
2009-03-27 07:50:58 51°14.379 2°55.068 14.5 282 7 99890 68
2009-03-27 07:51:03 51°14.388 2°55.053 17.5 25 7.1 99900 68
2009-03-27 07:51:07 51°14.394 2°55.04 18.2 283 7.1 99900 68
2009-03-27 07:51:13 51°14.404 2°55.021 17.7 22 7 99870 68
2009-03-27 07:51:18 51°14.411 2°55.005 16.2 282 7 99870 68
2009-03-27 07:51:23 51°14.416 2°54.987 17.7 319 7 99890 68
2009-03-27 07:51:28 51°14.421 2°54.97 16.1 284 7 99890 68
2009-03-27 07:51:33 51°14.425 2°54.951 15 322 7 99890 67
2009-03-27 07:51:38 51°14.428 2°54.932 18.2 308 7 99890 67
2009-03-27 07:51:43 51°14.43 2°54.913 14.9 328 7 99870 67
2009-03-27 07:51:48 51°14.43 2°54.894 18.6 328 7 99870 67
2009-03-27 07:51:53 51°14.43 2°54.874 16.8 329 7 99880 67
2009-03-27 07:51:58 51°14.43 2°54.854 17.2 333 7 99880 67
2009-03-27 07:52:03 51°14.428 2°54.833 19.4 336 7 99890 67
2009-03-27 07:52:07 51°14.426 2°54.817 19.1 334 7 99890 67
2009-03-27 07:52:13 51°14.421 2°54.793 16.2 334 7 99890 67
2009-03-27 07:52:18 51°14.417 2°54.773 16.5 334 7 99890 67
2009-03-27 07:52:23 51°14.413 2°54.753 20 334 7 99900 67
2009-03-27 07:52:28 51°14.408 2°54.732 17.2 332 7 99900 67
2009-03-27 07:52:33 51°14.404 2°54.711 16.7 332 7 99890 67
2009-03-27 07:52:38 51°14.4 2°54.69 17.6 334 7 99890 67
2009-03-27 07:52:43 51°14.395 2°54.668 17.5 333 7 99890 67
2009-03-27 07:52:48 51°14.391 2°54.647 16.8 332 7 99890 67
2009-03-27 07:52:53 51°14.386 2°54.625 16.3 336 7 99880 67
2009-03-27 07:52:58 51°14.382 2°54.603 16.8 334 7 99880 67
2009-03-27 07:53:03 51°14.377 2°54.58 16.7 333 7 99900 67
2009-03-27 07:53:08 51°14.373 2°54.558 18.3 334 7 99900 67
2009-03-27 07:53:13 51°14.368 2°54.535 18.9 335 7 99910 68
2009-03-27 07:53:18 51°14.362 2°54.512 18 334 7 99910 68
2009-03-27 07:53:23 51°14.357 2°54.488 17.1 333 7 99900 68
2009-03-27 07:53:27 51°14.352 2°54.469 19.6 335 7 99900 68
2009-03-27 07:53:33 51°14.346 2°54.44 19.6 335 7 99910 68
2009-03-27 07:53:38 51°14.34 2°54.415 17.6 335 7 99910 68
2009-03-27 07:53:43 51°14.334 2°54.391 19.6 336 7 99910 68
2009-03-27 07:53:48 51°14.327 2°54.368 16.9 335 7 99910 68
2009-03-27 07:53:53 51°14.32 2°54.343 18.4 335 7 99910 69
2009-03-27 07:53:58 51°14.314 2°54.32 20.2 336 7 99910 69
2009-03-27 07:54:03 51°14.307 2°54.296 20 334 7 99900 69
2009-03-27 07:54:08 51°14.3 2°54.272 18 337 7 99900 69
2009-03-27 07:54:13 51°14.293 2°54.248 19.9 338 7 99910 68
2009-03-27 07:54:18 51°14.285 2°54.224 17.3 336 7 99910 68
2009-03-27 07:54:22 51°14.28 2°54.205 15.6 337 7 99910 68
2009-03-27 07:54:28 51°14.271 2°54.177 18.4 336 7 99910 68
2009-03-27 07:54:33 51°14.264 2°54.153 18.3 335 6.9 99910 67
2009-03-27 07:54:38 51°14.257 2°54.129 17.2 337 6.9 99910 67
2009-03-27 07:54:43 51°14.249 2°54.105 19.3 336 6.9 99910 67
2009-03-27 07:54:47 51°14.243 2°54.087 21.2 337 6.9 99910 67
2009-03-27 07:54:53 51°14.234 2°54.058 19.9 336 6.9 99910 67
2009-03-27 07:54:58 51°14.226 2°54.035 17.6 336 6.9 99910 67
2009-03-27 07:55:03 51°14.218 2°54.011 19.3 338 6.9 99910 67
2009-03-27 07:55:08 51°14.211 2°53.988 18.1 337 6.9 99910 67
2009-03-27 07:55:13 51°14.203 2°53.964 18.2 336 6.9 99910 67
2009-03-27 07:55:18 51°14.195 2°53.94 17 335 6.9 99910 67
2009-03-27 07:55:23 51°14.187 2°53.917 16.6 335 6.9 99910 67
2009-03-27 07:55:28 51°14.18 2°53.894 16.6 338 6.9 99910 67
2009-03-27 07:55:33 51°14.172 2°53.87 18.4 336 6.9 99910 67
2009-03-27 07:55:38 51°14.165 2°53.847 17.3 336 6.9 99910 67
2009-03-27 07:55:43 51°14.158 2°53.822 20.3 336 6.9 99900 66
2009-03-27 07:55:48 51°14.15 2°53.799 18.1 337 6.9 99900 66
2009-03-27 07:55:53 51°14.142 2°53.776 15.4 339 6.9 99920 66
2009-03-27 07:55:58 51°14.135 2°53.753 15.1 333 6.9 99920 66
2009-03-27 07:56:03 51°14.127 2°53.729 16.3 334 6.9 99920 66
2009-03-27 07:56:08 51°14.119 2°53.706 18.1 337 6.9 99920 66
2009-03-27 07:56:13 51°14.112 2°53.682 17.9 337 6.9 99920 66
2009-03-27 07:56:18 51°14.105 2°53.658 19.4 334 6.9 99920 66
2009-03-27 07:56:23 51°14.097 2°53.634 20.5 336 6.9 99910 67
2009-03-27 07:56:28 51°14.09 2°53.611 17.7 335 6.9 99910 67
2009-03-27 07:56:33 51°14.082 2°53.587 18.2 334 7 99910 68
2009-03-27 07:56:38 51°14.074 2°53.564 17.4 337 7 99910 68
2009-03-27 07:56:43 51°14.067 2°53.54 20.5 338 7 99910 68
2009-03-27 07:56:47 51°14.061 2°53.521 17 336 7 99910 68
2009-03-27 07:56:53 51°14.052 2°53.492 16.4 337 7 99920 68
2009-03-27 07:56:58 51°14.045 2°53.468 17.6 336 7 99920 68
2009-03-27 07:57:03 51°14.037 2°53.444 19.9 336 6.9 99910 67
2009-03-27 07:57:08 51°14.03 2°53.42 19.4 335 6.9 99910 67
2009-03-27 07:57:13 51°14.022 2°53.396 19.1 333 6.9 99910 68
2009-03-27 07:57:18 51°14.015 2°53.372 16.9 335 6.9 99910 68
2009-03-27 07:57:23 51°14.007 2°53.349 18.1 335 6.9 99900 68
2009-03-27 07:57:28 51°13.999 2°53.325 21.7 336 6.9 99900 68
2009-03-27 07:57:33 51°13.992 2°53.301 18.3 335 6.9 99910 68
2009-03-27 07:57:38 51°13.984 2°53.277 19.4 336 6.9 99910 68
2009-03-27 07:57:43 51°13.976 2°53.253 19.3 337 6.9 99910 68
2009-03-27 07:57:48 51°13.968 2°53.229 17.6 335 6.9 99910 68
2009-03-27 07:57:53 51°13.961 2°53.205 17.9 338 6.9 99900 67
2009-03-27 07:57:58 51°13.953 2°53.181 18.5 338 6.9 99900 67
2009-03-27 07:58:03 51°13.945 2°53.156 18.9 338 6.9 99900 67
2009-03-27 07:58:07 51°13.939 2°53.137 17.7 338 6.9 99900 67
2009-03-27 07:58:13 51°13.929 2°53.108 18.6 337 6.9 99910 67
2009-03-27 07:58:18 51°13.922 2°53.084 19.9 337 6.9 99910 67
2009-03-27 07:58:23 51°13.914 2°53.06 19.4 339 6.9 99910 67
2009-03-27 07:58:28 51°13.907 2°53.035 19.2 337 6.9 99910 67
2009-03-27 07:58:33 51°13.899 2°53.01 18.5 336 6.9 99920 67
2009-03-27 07:58:38 51°13.892 2°52.986 18 338 6.9 99920 67
2009-03-27 07:58:43 51°13.884 2°52.962 19.8 336 6.9 99920 66
2009-03-27 07:58:48 51°13.876 2°52.938 17.7 338 6.9 99920 66
2009-03-27 07:58:53 51°13.869 2°52.914 17 336 6.9 99920 66
2009-03-27 07:58:58 51°13.861 2°52.89 17.6 338 6.9 99920 66
2009-03-27 07:59:02 51°13.855 2°52.87 19.9 337 6.9 99910 67
2009-03-27 07:59:08 51°13.845 2°52.842 17.5 337 6.9 99910 67
2009-03-27 07:59:13 51°13.838 2°52.818 19.8 338 6.9 99910 67
2009-03-27 07:59:18 51°13.83 2°52.794 19.9 338 6.9 99910 67
2009-03-27 07:59:23 51°13.822 2°52.77 19.7 336 6.9 99920 67
2009-03-27 07:59:27 51°13.816 2°52.75 17.5 337 6.9 99920 67
2009-03-27 07:59:33 51°13.806 2°52.722 17.9 338 6.9 99910 67
2009-03-27 07:59:38 51°13.798 2°52.698 19.6 340 6.9 99910 67
2009-03-27 07:59:43 51°13.791 2°52.675 20.6 337 6.9 99910 67
2009-03-27 07:59:48 51°13.783 2°52.651 18.3 338 6.9 99910 67
2009-03-27 07:59:53 51°13.775 2°52.627 19.3 339 6.9 99920 67
2009-03-27 07:59:58 51°13.768 2°52.603 18.5 337 6.9 99920 67
2009-03-27 08:00:03 51°13.76 2°52.58 17.8 336 6.8 99910 67
2009-03-27 08:00:08 51°13.752 2°52.556 21 337 6.8 99910 67
2009-03-27 08:00:13 51°13.744 2°52.532 18.3 336 6.8 99900 67
2009-03-27 08:00:18 51°13.737 2°52.508 18.4 337 6.8 99900 67
2009-03-27 08:00:23 51°13.729 2°52.484 18.8 339 6.8 99910 67
2009-03-27 08:00:28 51°13.722 2°52.459 17.8 338 6.8 99910 67
2009-03-27 08:00:33 51°13.714 2°52.435 18.5 337 6.8 99920 67
2009-03-27 08:00:38 51°13.706 2°52.411 18.2 338 6.8 99920 67
2009-03-27 08:00:43 51°13.699 2°52.387 18.3 336 6.8 99920 66
2009-03-27 08:00:48 51°13.693 2°52.362 19.8 338 6.8 99920 66
2009-03-27 08:00:53 51°13.685 2°52.338 20.7 338 6.8 99920 66
2009-03-27 08:00:58 51°13.677 2°52.314 20.6 337 6.8 99920 66
2009-03-27 08:01:03 51°13.67 2°52.29 19.5 337 6.8 99910 66
2009-03-27 08:01:08 51°13.662 2°52.266 15.9 337 6.8 99910 66
2009-03-27 08:01:13 51°13.655 2°52.242 15.9 334 6.8 99910 66
2009-03-27 08:01:18 51°13.647 2°52.218 15.6 336 6.8 99910 66
2009-03-27 08:01:23 51°13.64 2°52.193 16 335 6.8 99910 67
2009-03-27 08:01:27 51°13.634 2°52.174 17.3 335 6.8 99910 67
2009-03-27 08:01:33 51°13.625 2°52.145 20.6 334 6.8 99920 68
2009-03-27 08:01:38 51°13.618 2°52.12 20.3 338 6.8 99920 68
2009-03-27 08:01:43 51°13.611 2°52.095 17.5 337 6.9 99920 68
2009-03-27 08:01:48 51°13.603 2°52.07 16.8 336 6.9 99920 68
2009-03-27 08:01:53 51°13.596 2°52.046 16.9 335 6.9 99930 68
2009-03-27 08:01:58 51°13.589 2°52.021 18.2 336 6.9 99930 68
2009-03-27 08:02:03 51°13.581 2°51.996 15.7 335 6.8 99930 67
2009-03-27 08:02:08 51°13.574 2°51.972 16.4 337 6.8 99930 67
2009-03-27 08:02:13 51°13.566 2°51.948 20.7 337 6.8 99910 67
2009-03-27 08:02:18 51°13.559 2°51.924 20.8 337 6.8 99910 67
2009-03-27 08:02:23 51°13.551 2°51.9 18.6 336 6.8 99920 67
2009-03-27 08:02:28 51°13.544 2°51.876 17.6 338 6.8 99920 67
2009-03-27 08:02:33 51°13.537 2°51.852 20.6 338 6.8 99930 67
2009-03-27 08:02:38 51°13.53 2°51.828 15.5 335 6.8 99930 67
2009-03-27 08:02:43 51°13.523 2°51.805 15.8 335 6.8 99920 67
2009-03-27 08:02:47 51°13.517 2°51.787 16.7 342 6.8 99920 67
2009-03-27 08:02:53 51°13.508 2°51.761 16.3 342 6.8 99910 67
2009-03-27 08:02:58 51°13.499 2°51.742 17 344 6.8 99910 67
2009-03-27 08:03:03 51°13.488 2°51.724 15.7 344 6.8 99920 67
2009-03-27 08:03:08 51°13.478 2°51.708 15.8 347 6.8 99920 67
2009-03-27 08:03:13 51°13.467 2°51.691 18.3 349 6.8 99920 67
2009-03-27 08:03:18 51°13.456 2°51.675 17 350 6.8 99920 67
2009-03-27 08:03:23 51°13.445 2°51.66 17.4 350 6.8 99910 66
2009-03-27 08:03:28 51°13.433 2°51.646 15.2 353 6.8 99910 66
2009-03-27 08:03:33 51°13.421 2°51.633 16.4 355 6.8 99910 65
2009-03-27 08:03:38 51°13.41 2°51.62 17 352 6.8 99910 65
2009-03-27 08:03:42 51°13.402 2°51.612 15.5 352 6.8 99900 65
2009-03-27 08:03:48 51°13.391 2°51.599 14.1 349 6.8 99900 65
2009-03-27 08:03:53 51°13.383 2°51.587 12.7 348 6.8 99900 65
2009-03-27 08:03:58 51°13.376 2°51.576 12.3 346 6.8 99900 65
2009-03-27 08:04:03 51°13.37 2°51.565 12.3 343 6.8 99910 66
2009-03-27 08:04:07 51°13.365 2°51.557 15 343 6.8 99910 66
2009-03-27 08:04:13 51°13.359 2°51.544 15.4 340 6.8 99920 66
2009-03-27 08:04:18 51°13.355 2°51.533 16.1 337 6.8 99920 66
2009-03-27 08:04:23 51°13.352 2°51.523 13.1 334 6.9 99930 68
2009-03-27 08:04:28 51°13.349 2°51.514 13.5 332 6.9 99930 68
2009-03-27 08:04:33 51°13.347 2°51.504 14.8 328 6.9 99930 68
2009-03-27 08:04:38 51°13.346 2°51.496 12.5 326 6.9 99930 68
2009-03-27 08:04:43 51°13.345 2°51.487 13.3 325 6.8 99930 67
2009-03-27 08:04:48 51°13.344 2°51.479 12.5 308 6.8 99930 67
2009-03-27 08:04:53 51°13.343 2°51.471 15.4 321 6.8 99940 67
2009-03-27 08:04:58 51°13.343 2°51.464 11.1 308 6.8 99940 67
2009-03-27 08:05:02 51°13.343 2°51.458 11.3 319 6.8 99930 67
2009-03-27 08:05:08 51°13.343 2°51.451 15.7 307 6.8 99930 67
2009-03-27 08:05:13 51°13.344 2°51.446 15.2 21 6.8 99930 66
2009-03-27 08:05:18 51°13.344 2°51.442 12.7 305 6.8 99930 66
2009-03-27 08:05:23 51°13.344 2°51.438 11.3 24 6.8 99940 66
2009-03-27 08:05:28 51°13.345 2°51.435 12.1 305 6.8 99940 66
2009-03-27 08:05:33 51°13.345 2°51.432 11.7 25 6.8 99930 67
2009-03-27 08:05:38 51°13.345 2°51.43 11.9 304 6.8 99930 67
2009-03-27 08:05:43 51°13.345 2°51.429 12.1 20 6.8 99930 67
2009-03-27 08:05:48 51°13.346 2°51.428 11 309 6.8 99930 67
2009-03-27 08:05:53 51°13.346 2°51.426 12.4 246 6.9 99940 68
2009-03-27 08:05:58 51°13.346 2°51.425 14.1 306 6.9 99940 68
2009-03-27 08:06:03 51°13.345 2°51.425 13.7 249 6.9 99950 67
2009-03-27 08:06:08 51°13.345 2°51.424 12.5 303 6.9 99950 67
2009-03-27 08:06:13 51°13.345 2°51.423 11.1 252 6.8 99960 67
2009-03-27 08:06:18 51°13.345 2°51.423 12.5 308 6.8 99960 67
2009-03-27 08:06:23 51°13.344 2°51.423 14 251 6.9 99960 68
2009-03-27 08:06:27 51°13.344 2°51.423 12.3 304 6.9 99960 68
2009-03-27 08:06:33 51°13.343 2°51.422 16 254 6.9 99960 68
2009-03-27 08:06:38 51°13.343 2°51.422 14.2 306 6.9 99960 68
2009-03-27 08:06:43 51°13.342 2°51.421 15.8 253 6.9 99960 68
2009-03-27 08:06:48 51°13.342 2°51.42 12.2 305 6.9 99960 68
2009-03-27 08:06:53 51°13.341 2°51.42 15.8 258 6.9 99960 69
2009-03-27 08:06:58 51°13.34 2°51.42 11.9 304 6.9 99960 69
2009-03-27 08:07:03 51°13.339 2°51.419 15.3 260 6.9 99970 68
2009-03-27 08:07:08 51°13.339 2°51.419 12.4 307 6.9 99970 68
2009-03-27 08:07:13 51°13.338 2°51.419 12.4 262 6.9 99960 68
2009-03-27 08:07:18 51°13.337 2°51.419 13 305 6.9 99960 68
2009-03-27 08:07:23 51°13.336 2°51.419 11.3 263 6.9 99960 68
2009-03-27 08:07:28 51°13.335 2°51.419 8.6 303 6.9 99960 68
2009-03-27 08:07:33 51°13.334 2°51.419 7.9 265 6.9 99980 67
2009-03-27 08:07:38 51°13.333 2°51.419 8.7 306 6.9 99980 67
2009-03-27 08:07:43 51°13.332 2°51.418 11.7 259 6.9 99970 67
2009-03-27 08:07:47 51°13.332 2°51.418 8.7 305 6.9 99970 67
2009-03-27 08:07:53 51°13.331 2°51.417 9.5 267 6.8 99960 67
2009-03-27 08:07:58 51°13.33 2°51.417 7.5 309 6.8 99960 67
2009-03-27 08:08:03 51°13.329 2°51.417 10.7 264 6.9 99980 68
2009-03-27 08:08:08 51°13.328 2°51.417 13.3 308 6.9 99980 68
2009-03-27 08:08:13 51°13.327 2°51.417 11.1 261 6.9 99960 68
2009-03-27 08:08:18 51°13.326 2°51.416 10 308 6.9 99960 68
2009-03-27 08:08:23 51°13.325 2°51.417 10 262 6.9 99960 67
2009-03-27 08:08:28 51°13.323 2°51.417 10.7 306 6.9 99960 67
2009-03-27 08:08:33 51°13.322 2°51.418 8.8 263 6.8 99970 67
2009-03-27 08:08:38 51°13.321 2°51.417 9.3 306 6.8 99970 67
2009-03-27 08:08:42 51°13.32 2°51.417 9.2 264 6.8 99970 66
2009-03-27 08:08:48 51°13.319 2°51.417 7.7 305 6.8 99970 66
2009-03-27 08:08:53 51°13.318 2°51.417 10.5 268 6.8 99960 66
2009-03-27 08:08:58 51°13.317 2°51.417 8 306 6.8 99960 66
2009-03-27 08:09:03 51°13.316 2°51.417 8.6 263 6.8 99970 66
2009-03-27 08:09:07 51°13.315 2°51.417 8 307 6.8 99970 66
2009-03-27 08:09:13 51°13.313 2°51.417 8.5 266 6.8 99950 66
2009-03-27 08:09:18 51°13.312 2°51.417 7.4 307 6.8 99950 66
2009-03-27 08:09:23 51°13.311 2°51.417 10.5 263 6.8 99940 66
2009-03-27 08:09:28 51°13.31 2°51.417 6.8 305 6.8 99940 66
2009-03-27 08:09:33 51°13.308 2°51.417 8.2 263 6.8 99960 66
2009-03-27 08:09:38 51°13.307 2°51.418 10.2 304 6.8 99960 66
2009-03-27 08:09:43 51°13.306 2°51.417 9.4 264 6.9 99960 67
2009-03-27 08:09:48 51°13.304 2°51.416 9.2 307 6.9 99960 67
2009-03-27 08:09:53 51°13.303 2°51.417 7.3 263 6.9 99950 67
2009-03-27 08:09:58 51°13.302 2°51.417 9.6 309 6.9 99950 67
2009-03-27 08:10:02 51°13.301 2°51.416 7.2 263 6.9 99950 67
2009-03-27 08:10:08 51°13.3 2°51.416 7.4 309 6.9 99950 67
2009-03-27 08:10:13 51°13.299 2°51.416 9.8 264 6.9 99980 67
2009-03-27 08:10:18 51°13.298 2°51.416 6.4 304 6.9 99980 67
2009-03-27 08:10:23 51°13.297 2°51.416 5.9 263 6.9 99980 67
2009-03-27 08:10:28 51°13.297 2°51.416 8.7 308 6.9 99980 67
2009-03-27 08:10:33 51°13.297 2°51.417 9.2 264 6.8 99960 66
2009-03-27 08:10:38 51°13.298 2°51.417 7.5 308 6.8 99960 66
2009-03-27 08:10:43 51°13.298 2°51.417 9.2 261 6.8 99960 66
2009-03-27 08:10:48 51°13.299 2°51.417 7.9 306 6.8 99960 66
2009-03-27 08:10:53 51°13.3 2°51.416 9.3 262 6.8 99950 66
2009-03-27 08:10:58 51°13.301 2°51.416 12.7 310 6.8 99950 66
2009-03-27 08:11:03 51°13.302 2°51.416 12.5 259 6.8 99950 66
2009-03-27 08:11:08 51°13.303 2°51.415 10.7 308 6.8 99950 66
2009-03-27 08:11:13 51°13.305 2°51.414 11.8 261 6.8 99950 67
2009-03-27 08:11:18 51°13.306 2°51.414 11.6 305 6.8 99950 67
2009-03-27 08:11:23 51°13.307 2°51.413 9.2 259 6.9 99960 67
2009-03-27 08:11:27 51°13.308 2°51.413 13.3 307 6.9 99960 67
2009-03-27 08:11:33 51°13.31 2°51.412 8.8 258 6.9 99960 67
2009-03-27 08:11:38 51°13.312 2°51.411 11 309 6.9 99960 67
2009-03-27 08:11:43 51°13.314 2°51.409 11.1 255 6.9 99940 67
2009-03-27 08:11:48 51°13.315 2°51.408 13.1 304 6.9 99940 67
2009-03-27 08:11:53 51°13.317 2°51.407 14.7 257 6.9 99960 68
2009-03-27 08:11:58 51°13.319 2°51.406 14.3 283 6.9 99960 68
2009-03-27 08:12:03 51°13.32 2°51.404 16.5 254 6.9 99960 69
2009-03-27 08:12:08 51°13.322 2°51.403 16.8 303 6.9 99960 69
2009-03-27 08:12:13 51°13.323 2°51.401 16.7 258 6.9 99950 68
2009-03-27 08:12:18 51°13.324 2°51.4 17.7 305 6.9 99950 68
2009-03-27 08:12:23 51°13.326 2°51.399 15.8 256 6.9 99970 67
2009-03-27 08:12:28 51°13.327 2°51.398 16.6 304 6.9 99970 67
2009-03-27 08:12:33 51°13.328 2°51.396 16.6 255 6.9 99970 67
2009-03-27 08:12:38 51°13.329 2°51.395 14.8 303 6.9 99970 67
2009-03-27 08:12:43 51°13.331 2°51.393 11.5 254 6.9 99970 67
2009-03-27 08:12:47 51°13.332 2°51.393 13.2 310 6.9 99970 67
2009-03-27 08:12:53 51°13.334 2°51.391 16.9 255 6.9 99950 67
2009-03-27 08:12:58 51°13.335 2°51.391 15.1 308 6.9 99950 67
2009-03-27 08:13:03 51°13.337 2°51.39 13 257 6.9 99950 66
2009-03-27 08:13:08 51°13.338 2°51.389 15.7 306 6.9 99950 66
2009-03-27 08:13:13 51°13.339 2°51.387 17.2 255 6.8 99970 67
2009-03-27 08:13:18 51°13.34 2°51.385 16.2 307 6.8 99970 67
2009-03-27 08:13:23 51°13.341 2°51.383 13.9 253 6.8 99930 66
2009-03-27 08:13:28 51°13.342 2°51.382 14 306 6.8 99930 66
2009-03-27 08:13:33 51°13.343 2°51.381 16.6 20 6.8 99950 66
2009-03-27 08:13:38 51°13.344 2°51.38 13 309 6.8 99950 66
2009-03-27 08:13:42 51°13.344 2°51.378 15.7 252 6.8 99950 66
2009-03-27 08:13:48 51°13.345 2°51.377 12.2 307 6.8 99950 66
2009-03-27 08:13:53 51°13.346 2°51.375 16.1 252 6.8 99950 65
2009-03-27 08:13:58 51°13.347 2°51.374 13.5 309 6.8 99950 65
2009-03-27 08:14:03 51°13.348 2°51.373 11.8 255 6.8 99940 65
2009-03-27 08:14:07 51°13.349 2°51.372 15.9 310 6.8 99940 65
2009-03-27 08:14:13 51°13.35 2°51.371 14.1 253 6.8 99950 64
2009-03-27 08:14:18 51°13.351 2°51.369 14.8 305 6.8 99950 64
2009-03-27 08:14:23 51°13.351 2°51.368 12.6 252 6.8 99950 65
2009-03-27 08:14:28 51°13.352 2°51.367 14.4 306 6.8 99950 65
2009-03-27 08:14:33 51°13.353 2°51.366 13.3 251 6.8 99950 65
2009-03-27 08:14:38 51°13.354 2°51.365 16.2 307 6.8 99950 65
2009-03-27 08:14:43 51°13.356 2°51.365 13.5 253 6.8 99950 65
2009-03-27 08:14:48 51°13.356 2°51.363 15.9 308 6.8 99950 65
2009-03-27 08:14:53 51°13.357 2°51.362 14.9 256 6.8 99970 65
2009-03-27 08:14:58 51°13.357 2°51.361 12.7 304 6.8 99970 65
2009-03-27 08:15:03 51°13.358 2°51.361 14.6 251 6.8 99940 65
2009-03-27 08:15:08 51°13.359 2°51.36 13.3 304 6.8 99940 65
2009-03-27 08:15:13 51°13.36 2°51.358 13.8 254 6.8 99960 66
2009-03-27 08:15:18 51°13.36 2°51.356 10.6 305 6.8 99960 66
2009-03-27 08:15:23 51°13.361 2°51.355 10.6 253 6.8 99950 66
2009-03-27 08:15:28 51°13.362 2°51.353 13.8 308 6.8 99950 66
2009-03-27 08:15:33 51°13.363 2°51.353 11.1 248 6.8 99950 66
2009-03-27 08:15:38 51°13.363 2°51.351 11.5 310 6.8 99950 66
2009-03-27 08:15:43 51°13.365 2°51.35 14.3 252 6.9 99950 66
2009-03-27 08:15:48 51°13.365 2°51.348 11.4 304 6.9 99950 66
2009-03-27 08:15:53 51°13.366 2°51.347 11.7 245 6.9 99950 66
2009-03-27 08:15:58 51°13.367 2°51.345 11.2 306 6.9 99950 66
2009-03-27 08:16:03 51°13.368 2°51.343 13.6 25 6.9 99960 66
2009-03-27 08:16:07 51°13.369 2°51.342 13.8 305 6.9 99960 66
2009-03-27 08:16:13 51°13.37 2°51.341 13.1 250 6.9 99950 67
2009-03-27 08:16:18 51°13.37 2°51.339 10.7 303 6.9 99950 67
2009-03-27 08:16:23 51°13.371 2°51.337 11.1 248 6.9 99950 67
2009-03-27 08:16:28 51°13.372 2°51.336 13 308 6.9 99950 67
2009-03-27 08:16:33 51°13.373 2°51.335 14.8 247 6.9 99940 67
2009-03-27 08:16:38 51°13.374 2°51.335 16.3 307 6.9 99940 67
2009-03-27 08:16:43 51°13.374 2°51.333 13.3 249 6.9 99940 67
2009-03-27 08:16:48 51°13.375 2°51.332 11.8 308 6.9 99940 67
2009-03-27 08:16:53 51°13.376 2°51.331 11.3 247 6.9 99940 67
2009-03-27 08:16:58 51°13.376 2°51.33 12.2 304 6.9 99940 67
2009-03-27 08:17:03 51°13.377 2°51.329 15.1 253 6.9 99950 67
2009-03-27 08:17:08 51°13.378 2°51.328 14.8 308 6.9 99950 67
2009-03-27 08:17:13 51°13.379 2°51.326 12.5 22 6.9 99950 66
2009-03-27 08:17:18 51°13.379 2°51.325 15.4 305 6.9 99950 66
2009-03-27 08:17:23 51°13.38 2°51.323 13.1 254 6.9 99960 66
2009-03-27 08:17:27 51°13.381 2°51.322 13.3 308 6.9 99960 66
2009-03-27 08:17:33 51°13.382 2°51.32 14.9 251 6.9 99950 66
2009-03-27 08:17:38 51°13.383 2°51.319 15.7 306 6.9 99950 66
2009-03-27 08:17:43 51°13.384 2°51.317 11.2 252 6.9 99940 66
2009-03-27 08:17:48 51°13.385 2°51.316 15 310 6.9 99940 66
2009-03-27 08:17:53 51°13.385 2°51.314 14.9 250 6.9 99940 66
2009-03-27 08:17:58 51°13.386 2°51.313 10.7 305 6.9 99940 66
2009-03-27 08:18:03 51°13.388 2°51.312 10.9 20 6.9 99950 66
2009-03-27 08:18:08 51°13.389 2°51.313 14 306 6.9 99950 66
2009-03-27 08:18:13 51°13.39 2°51.312 13.9 249 6.9 99970 66
2009-03-27 08:18:18 51°13.391 2°51.311 13.8 302 6.9 99970 66
2009-03-27 08:18:23 51°13.392 2°51.31 11.5 25 6.9 99950 66
2009-03-27 08:18:28 51°13.392 2°51.309 11.7 304 6.9 99950 66
2009-03-27 08:18:33 51°13.393 2°51.308 15 24 6.9 99940 67
2009-03-27 08:18:38 51°13.393 2°51.306 15.9 309 6.9 99940 67
2009-03-27 08:18:43 51°13.394 2°51.306 15.3 19 6.9 99940 67
2009-03-27 08:18:48 51°13.394 2°51.306 14.2 302 6.9 99940 67
2009-03-27 08:18:53 51°13.394 2°51.305 14.5 250 6.9 99940 67
2009-03-27 08:18:58 51°13.394 2°51.305 13.3 306 6.9 99940 67
2009-03-27 08:19:03 51°13.393 2°51.304 12.7 251 6.9 99960 66
2009-03-27 08:19:08 51°13.393 2°51.303 16.9 309 6.9 99960 66
2009-03-27 08:19:13 51°13.393 2°51.303 14.8 258 6.9 99950 66
2009-03-27 08:19:18 51°13.392 2°51.303 10.9 304 6.9 99950 66
2009-03-27 08:19:22 51°13.392 2°51.302 14 255 6.9 99930 66
2009-03-27 08:19:28 51°13.391 2°51.302 12.4 308 6.9 99930 66
2009-03-27 08:19:33 51°13.391 2°51.302 13.9 258 6.9 99960 66
2009-03-27 08:19:38 51°13.391 2°51.302 13.8 304 6.9 99960 66
2009-03-27 08:19:43 51°13.39 2°51.303 12.3 259 6.9 99960 66
2009-03-27 08:19:48 51°13.39 2°51.303 11.2 304 6.9 99960 66
2009-03-27 08:19:53 51°13.389 2°51.303 13.9 261 6.9 99960 66
2009-03-27 08:19:58 51°13.389 2°51.303 13.9 307 6.9 99960 66
2009-03-27 08:20:03 51°13.388 2°51.302 14.1 261 6.8 99960 66
2009-03-27 08:20:08 51°13.387 2°51.303 12.7 306 6.8 99960 66
2009-03-27 08:20:13 51°13.386 2°51.303 10.2 262 6.9 99960 66
2009-03-27 08:20:18 51°13.386 2°51.303 13.5 305 6.9 99960 66
2009-03-27 08:20:23 51°13.385 2°51.303 14.3 258 6.8 99950 65
2009-03-27 08:20:28 51°13.384 2°51.303 10.3 309 6.8 99950 65
2009-03-27 08:20:33 51°13.383 2°51.304 8.7 263 6.9 99960 65
2009-03-27 08:20:38 51°13.383 2°51.305 11.4 306 6.9 99960 65
2009-03-27 08:20:43 51°13.382 2°51.305 11.2 262 6.9 99940 66
2009-03-27 08:20:47 51°13.381 2°51.305 8 305 6.9 99940 66
2009-03-27 08:20:53 51°13.38 2°51.305 10.8 262 6.9 99980 67
2009-03-27 08:20:58 51°13.379 2°51.305 10.4 307 6.9 99980 67
2009-03-27 08:21:03 51°13.378 2°51.305 7.2 265 6.9 99970 66
2009-03-27 08:21:08 51°13.377 2°51.304 8.7 310 6.9 99970 66
2009-03-27 08:21:13 51°13.376 2°51.306 10 263 6.9 99950 66
2009-03-27 08:21:18 51°13.375 2°51.306 6.8 309 6.9 99950 66
2009-03-27 08:21:23 51°13.374 2°51.306 11.8 263 6.8 99970 65
2009-03-27 08:21:28 51°13.373 2°51.305 8.9 307 6.8 99970 65
2009-03-27 08:21:33 51°13.372 2°51.306 9.6 266 6.8 99980 65
2009-03-27 08:21:38 51°13.371 2°51.306 4.4 309 6.8 99980 65
2009-03-27 08:21:43 51°13.37 2°51.306 7.4 266 6.8 99970 65
2009-03-27 08:21:48 51°13.368 2°51.306 10.3 304 6.8 99970 65
2009-03-27 08:21:53 51°13.368 2°51.306 8.7 264 6.8 99970 64
2009-03-27 08:21:58 51°13.366 2°51.306 7.4 304 6.8 99970 64
2009-03-27 08:22:03 51°13.365 2°51.306 9.5 266 6.8 99970 64
2009-03-27 08:22:07 51°13.364 2°51.306 8 311 6.8 99970 64
2009-03-27 08:22:13 51°13.363 2°51.307 8 263 6.8 99950 64
2009-03-27 08:22:18 51°13.362 2°51.306 6.8 303 6.8 99950 64
2009-03-27 08:22:23 51°13.361 2°51.306 8.9 267 6.8 99960 65
2009-03-27 08:22:28 51°13.359 2°51.306 7.9 309 6.8 99960 65
2009-03-27 08:22:33 51°13.358 2°51.306 7.2 264 6.8 99950 65
2009-03-27 08:22:38 51°13.357 2°51.306 7.1 304 6.8 99950 65
2009-03-27 08:22:43 51°13.356 2°51.306 9.8 265 6.8 99950 66
2009-03-27 08:22:48 51°13.354 2°51.306 9.4 303 6.8 99950 66
2009-03-27 08:22:53 51°13.353 2°51.306 8.6 265 6.9 99960 66
2009-03-27 08:22:58 51°13.352 2°51.306 8.1 305 6.9 99960 66
2009-03-27 08:23:03 51°13.351 2°51.306 9.2 266 6.9 99950 67
2009-03-27 08:23:08 51°13.35 2°51.306 8.2 304 6.9 99950 67
2009-03-27 08:23:13 51°13.349 2°51.307 9.6 265 6.8 99950 67
2009-03-27 08:23:18 51°13.348 2°51.306 8.4 309 6.8 99950 67
2009-03-27 08:23:23 51°13.347 2°51.307 8.9 267 6.9 99950 67
2009-03-27 08:23:28 51°13.346 2°51.307 9.1 303 6.9 99950 67
2009-03-27 08:23:33 51°13.345 2°51.306 9.2 12 6.8 99960 67
2009-03-27 08:23:38 51°13.344 2°51.306 8.9 311 6.8 99960 67
2009-03-27 08:23:43 51°13.343 2°51.307 8.4 267 6.8 99950 67
2009-03-27 08:23:48 51°13.342 2°51.307 10 305 6.8 99950 67
2009-03-27 08:23:53 51°13.341 2°51.307 8.4 264 6.8 99960 67
2009-03-27 08:23:58 51°13.34 2°51.307 9 304 6.8 99960 67
2009-03-27 08:24:03 51°13.339 2°51.307 9.8 267 6.8 99950 67
2009-03-27 08:24:08 51°13.338 2°51.306 9.8 306 6.8 99950 67
2009-03-27 08:24:13 51°13.337 2°51.308 10.4 269 6.8 99960 67
2009-03-27 08:24:18 51°13.336 2°51.308 9.4 306 6.8 99960 67
2009-03-27 08:24:23 51°13.335 2°51.308 8.8 270 6.8 99950 68
2009-03-27 08:24:28 51°13.334 2°51.307 10.1 303 6.8 99950 68
2009-03-27 08:24:33 51°13.333 2°51.307 12.1 270 6.9 99950 68
2009-03-27 08:24:38 51°13.332 2°51.307 11.1 307 6.9 99950 68
2009-03-27 08:24:43 51°13.331 2°51.307 12.6 268 6.8 99970 68
2009-03-27 08:24:48 51°13.33 2°51.307 9.5 311 6.8 99970 68
2009-03-27 08:24:53 51°13.329 2°51.307 13 270 6.8 99960 67
2009-03-27 08:24:58 51°13.328 2°51.307 11.7 79 6.8 99960 67
2009-03-27 08:25:03 51°13.327 2°51.308 9.3 269 6.8 99960 68
2009-03-27 08:25:08 51°13.327 2°51.308 12.7 309 6.8 99960 68
2009-03-27 08:25:13 51°13.326 2°51.307 11.1 269 6.8 99960 68
2009-03-27 08:25:18 51°13.325 2°51.307 11.6 305 6.8 99960 68
2009-03-27 08:25:23 51°13.324 2°51.308 10.9 269 6.9 99950 68
2009-03-27 08:25:27 51°13.324 2°51.308 10.1 301 6.9 99950 68
2009-03-27 08:25:33 51°13.323 2°51.308 11.8 269 6.8 99950 68
2009-03-27 08:25:38 51°13.322 2°51.308 11.2 305 6.8 99950 68
2009-03-27 08:25:43 51°13.321 2°51.308 10.9 270 6.8 99970 68
2009-03-27 08:25:48 51°13.32 2°51.307 8.4 305 6.8 99970 68
2009-03-27 08:25:53 51°13.319 2°51.307 7.5 264 6.8 99960 67
2009-03-27 08:25:58 51°13.318 2°51.307 8.2 285 6.8 99960 67
2009-03-27 08:26:03 51°13.317 2°51.307 8.8 265 6.8 99960 67
2009-03-27 08:26:08 51°13.316 2°51.307 10.1 309 6.8 99960 67
2009-03-27 08:26:13 51°13.315 2°51.306 9.9 269 6.8 99970 67
2009-03-27 08:26:18 51°13.315 2°51.307 8.1 305 6.8 99970 67
2009-03-27 08:26:23 51°13.314 2°51.306 8.4 262 6.8 99970 67
2009-03-27 08:26:28 51°13.313 2°51.306 9.8 306 6.8 99970 67
2009-03-27 08:26:33 51°13.312 2°51.306 8.9 266 6.8 99960 67
2009-03-27 08:26:38 51°13.311 2°51.306 7.6 308 6.8 99960 67
2009-03-27 08:26:43 51°13.311 2°51.306 11.6 266 6.8 99960 68
2009-03-27 08:26:47 51°13.31 2°51.306 9.5 309 6.8 99960 68
2009-03-27 08:26:53 51°13.309 2°51.305 7.8 265 6.8 99970 68
2009-03-27 08:26:58 51°13.308 2°51.306 12.9 281 6.8 99970 68
2009-03-27 08:27:03 51°13.307 2°51.306 9.6 264 6.8 99950 68
2009-03-27 08:27:08 51°13.306 2°51.306 10.5 309 6.8 99950 68
2009-03-27 08:27:13 51°13.306 2°51.306 11.3 269 6.8 99960 68
2009-03-27 08:27:18 51°13.305 2°51.306 10.2 304 6.8 99960 68
2009-03-27 08:27:23 51°13.304 2°51.307 9.5 264 6.8 99980 68
2009-03-27 08:27:28 51°13.303 2°51.307 9.2 306 6.8 99980 68
2009-03-27 08:27:33 51°13.302 2°51.306 12.3 270 6.8 99970 67
2009-03-27 08:27:38 51°13.301 2°51.306 8.7 309 6.8 99970 67
2009-03-27 08:27:43 51°13.301 2°51.306 8.5 266 6.8 99970 67
2009-03-27 08:27:48 51°13.3 2°51.306 8 304 6.8 99970 67
2009-03-27 08:27:53 51°13.299 2°51.307 12.6 259 6.7 99980 66
2009-03-27 08:27:58 51°13.298 2°51.306 11.4 279 6.7 99980 66
2009-03-27 08:28:03 51°13.297 2°51.306 8.8 268 6.7 99980 66
2009-03-27 08:28:08 51°13.296 2°51.306 7.1 309 6.7 99980 66
2009-03-27 08:28:13 51°13.295 2°51.307 8.7 263 6.7 99980 67
2009-03-27 08:28:18 51°13.294 2°51.307 9.7 303 6.7 99980 67
2009-03-27 08:28:23 51°13.293 2°51.306 9.9 265 6.8 99970 66
2009-03-27 08:28:28 51°13.293 2°51.306 9.3 304 6.8 99970 66
2009-03-27 08:28:33 51°13.292 2°51.307 10.9 266 6.8 99970 67
2009-03-27 08:28:38 51°13.29 2°51.307 9.9 305 6.8 99970 67
2009-03-27 08:28:43 51°13.289 2°51.306 8.8 265 6.8 99970 67
2009-03-27 08:28:47 51°13.289 2°51.308 9.6 309 6.8 99970 67
2009-03-27 08:28:53 51°13.288 2°51.308 10.6 266 6.8 99980 67
2009-03-27 08:28:58 51°13.287 2°51.308 9.3 278 6.8 99980 67
2009-03-27 08:29:03 51°13.286 2°51.308 8.4 266 6.7 99970 66
2009-03-27 08:29:08 51°13.284 2°51.308 7.4 307 6.7 99970 66
2009-03-27 08:29:13 51°13.284 2°51.308 13.1 261 6.7 99950 66
2009-03-27 08:29:18 51°13.283 2°51.308 10.3 305 6.7 99950 66
2009-03-27 08:29:23 51°13.281 2°51.308 8.9 264 6.7 99970 66
2009-03-27 08:29:28 51°13.28 2°51.308 6.8 308 6.7 99970 66
2009-03-27 08:29:33 51°13.28 2°51.309 9.9 265 6.7 99970 66
2009-03-27 08:29:38 51°13.278 2°51.309 7 303 6.7 99970 66
2009-03-27 08:29:43 51°13.277 2°51.308 9.6 263 6.8 99980 67
2009-03-27 08:29:48 51°13.276 2°51.308 6.8 308 6.8 99980 67
2009-03-27 08:29:53 51°13.275 2°51.309 9.4 265 6.8 99980 67
2009-03-27 08:29:58 51°13.274 2°51.309 8.3 309 6.8 99980 67
2009-03-27 08:30:03 51°13.273 2°51.309 7.5 264 6.8 99970 67
2009-03-27 08:30:07 51°13.272 2°51.309 10.2 304 6.8 99970 67
2009-03-27 08:30:13 51°13.27 2°51.309 8 264 6.8 99980 68
2009-03-27 08:30:18 51°13.269 2°51.309 8.4 306 6.8 99980 68
2009-03-27 08:30:23 51°13.268 2°51.309 8.4 266 6.8 99970 69
2009-03-27 08:30:28 51°13.267 2°51.309 11.1 309 6.8 99970 69
2009-03-27 08:30:33 51°13.266 2°51.309 8.9 264 6.9 99980 69
2009-03-27 08:30:38 51°13.265 2°51.309 10.3 309 6.9 99980 69
2009-03-27 08:30:43 51°13.263 2°51.309 8.1 266 6.8 99980 68
2009-03-27 08:30:48 51°13.262 2°51.31 7.4 305 6.8 99980 68
2009-03-27 08:30:53 51°13.261 2°51.311 10.9 267 6.8 99960 68
2009-03-27 08:30:58 51°13.26 2°51.31 10.2 286 6.8 99960 68
2009-03-27 08:31:02 51°13.259 2°51.311 10.1 266 6.8 99970 68
2009-03-27 08:31:08 51°13.257 2°51.31 7.9 303 6.8 99970 68
2009-03-27 08:31:13 51°13.256 2°51.31 8.1 266 6.8 99960 69
2009-03-27 08:31:18 51°13.255 2°51.31 9.4 304 6.8 99960 69
2009-03-27 08:31:23 51°13.254 2°51.311 9.5 268 6.8 99980 69
2009-03-27 08:31:27 51°13.253 2°51.31 10.3 304 6.8 99980 69
2009-03-27 08:31:33 51°13.251 2°51.31 11.2 267 6.8 99980 70
2009-03-27 08:31:38 51°13.25 2°51.31 8.7 307 6.8 99980 70
2009-03-27 08:31:43 51°13.249 2°51.31 7.6 265 6.8 99970 70
2009-03-27 08:31:48 51°13.247 2°51.309 8.7 309 6.8 99970 70
2009-03-27 08:31:53 51°13.246 2°51.309 9.7 266 6.9 99960 70
2009-03-27 08:31:58 51°13.245 2°51.309 9 307 6.9 99960 70
2009-03-27 08:32:03 51°13.244 2°51.31 8.7 265 6.9 99960 71
2009-03-27 08:32:08 51°13.242 2°51.309 12.5 304 6.9 99960 71
2009-03-27 08:32:13 51°13.241 2°51.309 9.9 266 6.8 99970 69
2009-03-27 08:32:18 51°13.24 2°51.309 10.1 310 6.8 99970 69
2009-03-27 08:32:23 51°13.239 2°51.309 9.5 265 6.8 99970 68
2009-03-27 08:32:28 51°13.237 2°51.309 10.4 304 6.8 99970 68
2009-03-27 08:32:33 51°13.236 2°51.309 10.7 265 6.8 99970 68
2009-03-27 08:32:38 51°13.235 2°51.31 8.4 306 6.8 99970 68
2009-03-27 08:32:43 51°13.234 2°51.31 9.6 264 6.8 99970 68
2009-03-27 08:32:48 51°13.232 2°51.31 7.8 304 6.8 99970 68
2009-03-27 08:32:53 51°13.231 2°51.31 12.1 270 6.8 99980 68
2009-03-27 08:32:58 51°13.23 2°51.31 11.7 284 6.8 99980 68
2009-03-27 08:33:03 51°13.229 2°51.309 8.9 266 6.7 99970 68
2009-03-27 08:33:08 51°13.227 2°51.31 11.2 308 6.7 99970 68
2009-03-27 08:33:13 51°13.226 2°51.31 10 264 6.8 99980 68
2009-03-27 08:33:18 51°13.225 2°51.31 8.4 308 6.8 99980 68
2009-03-27 08:33:23 51°13.224 2°51.309 10.3 24 6.7 99980 67
2009-03-27 08:33:27 51°13.223 2°51.31 7.7 306 6.7 99980 67
2009-03-27 08:33:33 51°13.221 2°51.31 10.4 266 6.7 99980 67
2009-03-27 08:33:38 51°13.22 2°51.31 7.2 309 6.7 99980 67
2009-03-27 08:33:43 51°13.219 2°51.309 11 270 6.7 99970 67
2009-03-27 08:33:48 51°13.218 2°51.309 8.7 310 6.7 99970 67
2009-03-27 08:33:53 51°13.217 2°51.309 9.8 18 6.7 99960 67
2009-03-27 08:33:58 51°13.216 2°51.31 11 309 6.7 99960 67
2009-03-27 08:34:03 51°13.215 2°51.309 11.6 268 6.8 99970 68
2009-03-27 08:34:08 51°13.214 2°51.308 12.4 297 6.8 99970 68
2009-03-27 08:34:13 51°13.213 2°51.308 11.5 270 6.8 99980 69
2009-03-27 08:34:18 51°13.212 2°51.309 10.9 49 6.8 99980 69
2009-03-27 08:34:23 51°13.211 2°51.308 10.7 24 6.8 99960 69
2009-03-27 08:34:28 51°13.21 2°51.308 10.1 305 6.8 99960 69
2009-03-27 08:34:33 51°13.209 2°51.308 10.9 270 6.8 99980 69
2009-03-27 08:34:38 51°13.208 2°51.307 7.4 310 6.8 99980 69
2009-03-27 08:34:43 51°13.207 2°51.307 7.8 270 6.8 99960 70
2009-03-27 08:34:47 51°13.206 2°51.307 11 304 6.8 99960 70
2009-03-27 08:34:53 51°13.205 2°51.307 9.1 265 6.9 99970 70
2009-03-27 08:34:58 51°13.204 2°51.307 12.5 278 6.9 99970 70
2009-03-27 08:35:03 51°13.203 2°51.307 9.4 267 6.9 99970 71
2009-03-27 08:35:08 51°13.203 2°51.307 8.4 310 6.9 99970 71
2009-03-27 08:35:13 51°13.202 2°51.306 10.8 267 6.9 99970 70
2009-03-27 08:35:18 51°13.2 2°51.306 9.6 303 6.9 99970 70
2009-03-27 08:35:23 51°13.2 2°51.307 7.7 263 6.8 99970 70
2009-03-27 08:35:28 51°13.199 2°51.308 8.9 305 6.8 99970 70
2009-03-27 08:35:33 51°13.198 2°51.307 8.8 266 6.8 99990 70
2009-03-27 08:35:38 51°13.197 2°51.306 8.1 302 6.8 99990 70
2009-03-27 08:35:43 51°13.196 2°51.307 7.3 264 6.8 99970 70
2009-03-27 08:35:48 51°13.194 2°51.307 9.7 302 6.8 99970 70
2009-03-27 08:35:53 51°13.193 2°51.307 8.4 265 6.8 99950 70
2009-03-27 08:35:58 51°13.192 2°51.306 10.5 306 6.8 99950 70
2009-03-27 08:36:03 51°13.191 2°51.306 9.3 267 6.8 99980 71
2009-03-27 08:36:07 51°13.19 2°51.307 10.4 306 6.8 99980 71
2009-03-27 08:36:13 51°13.189 2°51.306 8 267 6.8 99960 71
2009-03-27 08:36:18 51°13.188 2°51.306 7.6 306 6.8 99960 71
2009-03-27 08:36:23 51°13.187 2°51.306 9 267 6.8 99980 71
2009-03-27 08:36:28 51°13.186 2°51.305 7.5 305 6.8 99980 71
2009-03-27 08:36:33 51°13.186 2°51.305 9 265 6.8 99990 71
2009-03-27 08:36:38 51°13.185 2°51.305 12.1 304 6.8 99990 71
2009-03-27 08:36:43 51°13.186 2°51.305 7.8 260 6.8 99960 71
2009-03-27 08:36:48 51°13.186 2°51.305 12.3 308 6.8 99960 71
2009-03-27 08:36:53 51°13.187 2°51.305 12.5 259 6.8 99980 71
2009-03-27 08:36:58 51°13.187 2°51.303 15.3 283 6.8 99980 71
2009-03-27 08:37:03 51°13.188 2°51.303 15.9 258 6.8 99980 72
2009-03-27 08:37:08 51°13.189 2°51.301 10.6 310 6.8 99980 72
2009-03-27 08:37:13 51°13.19 2°51.3 13.2 249 6.9 99980 72
2009-03-27 08:37:18 51°13.191 2°51.297 14.5 305 6.9 99980 72
2009-03-27 08:37:23 51°13.193 2°51.295 13.5 247 6.9 99970 72
2009-03-27 08:37:28 51°13.194 2°51.292 12.8 305 6.9 99970 72
2009-03-27 08:37:33 51°13.196 2°51.29 11.6 27 6.9 99960 72
2009-03-27 08:37:38 51°13.198 2°51.287 13 302 6.9 99960 72
2009-03-27 08:37:43 51°13.199 2°51.284 14.3 24 6.9 99970 72
2009-03-27 08:37:48 51°13.201 2°51.28 14 307 6.9 99970 72
2009-03-27 08:37:53 51°13.203 2°51.277 13.8 24 6.9 99960 71
2009-03-27 08:37:58 51°13.204 2°51.273 11 306 6.9 99960 71
2009-03-27 08:38:03 51°13.205 2°51.268 13.6 22 6.9 99960 71
2009-03-27 08:38:07 51°13.206 2°51.264 12.7 306 6.9 99960 71
2009-03-27 08:38:13 51°13.208 2°51.258 13.7 24 6.9 99940 71
2009-03-27 08:38:18 51°13.209 2°51.251 11.4 306 6.9 99940 71
2009-03-27 08:38:23 51°13.209 2°51.245 12.7 316 6.9 99940 71
2009-03-27 08:38:28 51°13.21 2°51.237 11.7 307 6.9 99940 71
2009-03-27 08:38:33 51°13.209 2°51.23 12.6 319 6.9 99940 71
2009-03-27 08:38:38 51°13.209 2°51.223 12.5 307 6.9 99940 71
2009-03-27 08:38:43 51°13.208 2°51.216 12.4 325 6.9 99940 72
2009-03-27 08:38:48 51°13.206 2°51.209 11.9 328 6.9 99940 72
2009-03-27 08:38:53 51°13.204 2°51.203 12 330 6.9 99940 72
2009-03-27 08:38:58 51°13.202 2°51.196 13.6 282 6.9 99940 72
2009-03-27 08:39:03 51°13.199 2°51.191 14.4 335 6.9 99940 72
2009-03-27 08:39:08 51°13.196 2°51.186 13.5 341 6.9 99940 72
2009-03-27 08:39:13 51°13.194 2°51.182 13.6 341 6.9 99940 71
2009-03-27 08:39:18 51°13.191 2°51.177 13.4 342 6.9 99940 71
2009-03-27 08:39:23 51°13.188 2°51.173 11 343 6.9 99940 71
2009-03-27 08:39:27 51°13.185 2°51.17 12.7 345 6.9 99940 71
2009-03-27 08:39:33 51°13.182 2°51.165 12.7 346 6.9 99940 71
2009-03-27 08:39:38 51°13.179 2°51.162 11.6 346 6.9 99940 71
2009-03-27 08:39:43 51°13.175 2°51.159 12.1 341 6.9 99940 72
2009-03-27 08:39:48 51°13.172 2°51.156 11 345 6.9 99940 72
2009-03-27 08:39:53 51°13.169 2°51.153 12.6 350 6.9 99940 71
2009-03-27 08:39:58 51°13.166 2°51.15 11.1 346 6.9 99940 71
2009-03-27 08:40:03 51°13.163 2°51.147 10.7 349 6.9 99930 71
2009-03-27 08:40:08 51°13.16 2°51.144 13 342 6.9 99930 71
2009-03-27 08:40:13 51°13.157 2°51.14 14.3 341 6.9 99930 71
2009-03-27 08:40:18 51°13.154 2°51.136 12.6 337 6.9 99930 71
2009-03-27 08:40:22 51°13.151 2°51.133 12.7 337 6.9 99940 72
2009-03-27 08:40:28 51°13.148 2°51.128 13.9 336 6.9 99940 72
2009-03-27 08:40:33 51°13.145 2°51.124 14.4 337 6.8 99940 72
2009-03-27 08:40:38 51°13.142 2°51.119 14.3 338 6.8 99940 72
2009-03-27 08:40:43 51°13.139 2°51.114 14.1 335 6.8 99950 72
2009-03-27 08:40:47 51°13.137 2°51.11 11.3 335 6.8 99950 72
2009-03-27 08:40:53 51°13.133 2°51.103 12.7 336 6.8 99960 72
2009-03-27 08:40:58 51°13.13 2°51.097 16.6 282 6.8 99960 72
2009-03-27 08:41:03 51°13.127 2°51.091 15.5 334 6.8 99950 71
2009-03-27 08:41:08 51°13.124 2°51.085 13.2 333 6.8 99950 71
2009-03-27 08:41:13 51°13.121 2°51.079 15.4 335 6.8 99950 72
2009-03-27 08:41:18 51°13.118 2°51.072 14.3 331 6.8 99950 72
2009-03-27 08:41:23 51°13.115 2°51.066 13.9 331 6.8 99940 71
2009-03-27 08:41:28 51°13.113 2°51.059 15.6 333 6.8 99940 71
2009-03-27 08:41:33 51°13.109 2°51.053 13.3 333 6.8 99950 70
2009-03-27 08:41:38 51°13.106 2°51.047 12.2 332 6.8 99950 70
2009-03-27 08:41:42 51°13.104 2°51.041 12.6 331 6.8 99950 70
2009-03-27 08:41:48 51°13.1 2°51.034 12.6 332 6.8 99950 70
2009-03-27 08:41:53 51°13.097 2°51.027 14.2 336 6.8 99960 70
2009-03-27 08:41:58 51°13.094 2°51.021 13.7 333 6.8 99960 70
2009-03-27 08:42:03 51°13.091 2°51.014 12.7 336 6.8 99950 71
2009-03-27 08:42:08 51°13.088 2°51.007 12.4 301 6.8 99950 71
2009-03-27 08:42:13 51°13.085 2°51 10.5 337 6.8 99950 71
2009-03-27 08:42:18 51°13.082 2°50.993 12.7 330 6.8 99950 71
2009-03-27 08:42:23 51°13.079 2°50.986 11.9 336 6.8 99950 71
2009-03-27 08:42:28 51°13.075 2°50.981 15.3 334 6.8 99950 71
2009-03-27 08:42:33 51°13.072 2°50.974 13.8 337 6.8 99950 71
2009-03-27 08:42:38 51°13.069 2°50.968 12.7 334 6.8 99950 71
2009-03-27 08:42:43 51°13.066 2°50.961 13.2 334 6.8 99950 72
2009-03-27 08:42:48 51°13.063 2°50.955 14.2 337 6.8 99950 72
2009-03-27 08:42:53 51°13.06 2°50.949 15.4 336 6.8 99950 71
2009-03-27 08:42:58 51°13.057 2°50.943 14.8 280 6.8 99950 71
2009-03-27 08:43:03 51°13.054 2°50.937 15.9 337 6.8 99950 71
2009-03-27 08:43:07 51°13.051 2°50.932 15.8 335 6.8 99950 71
2009-03-27 08:43:13 51°13.048 2°50.925 14.3 336 6.9 99950 72
2009-03-27 08:43:18 51°13.045 2°50.919 14.4 335 6.9 99950 72
2009-03-27 08:43:23 51°13.041 2°50.912 12.9 336 6.8 99950 71
2009-03-27 08:43:28 51°13.038 2°50.906 14.3 333 6.8 99950 71
2009-03-27 08:43:33 51°13.035 2°50.9 16.8 332 6.8 99950 71
2009-03-27 08:43:38 51°13.032 2°50.894 14.5 336 6.8 99950 71
2009-03-27 08:43:43 51°13.029 2°50.887 12.9 334 6.8 99960 71
2009-03-27 08:43:48 51°13.025 2°50.881 13.9 338 6.8 99960 71
2009-03-27 08:43:53 51°13.022 2°50.874 13 338 6.8 99960 72
2009-03-27 08:43:58 51°13.019 2°50.868 14.8 340 6.8 99960 72
2009-03-27 08:44:03 51°13.016 2°50.862 13.4 336 6.8 99950 71
2009-03-27 08:44:08 51°13.013 2°50.856 14.1 335 6.8 99950 71
2009-03-27 08:44:13 51°13.009 2°50.85 14.8 336 6.8 99950 71
2009-03-27 08:44:18 51°13.006 2°50.843 14.2 338 6.8 99950 71
2009-03-27 08:44:23 51°13.003 2°50.837 12.9 339 6.8 99930 71
2009-03-27 08:44:27 51°13 2°50.832 15.7 336 6.8 99930 71
2009-03-27 08:44:33 51°12.996 2°50.824 13.9 334 6.8 99960 71
2009-03-27 08:44:38 51°12.993 2°50.818 13.8 336 6.8 99960 71
2009-03-27 08:44:43 51°12.989 2°50.811 13.4 339 6.8 99950 71
2009-03-27 08:44:48 51°12.987 2°50.804 14.1 337 6.8 99950 71
2009-03-27 08:44:53 51°12.983 2°50.798 12.2 334 6.9 99950 71
2009-03-27 08:44:58 51°12.98 2°50.791 15.9 282 6.9 99950 71
2009-03-27 08:45:03 51°12.976 2°50.785 13.5 334 6.8 99960 71
2009-03-27 08:45:08 51°12.973 2°50.779 14.2 342 6.8 99960 71
2009-03-27 08:45:13 51°12.97 2°50.773 12.1 337 6.8 99950 70
2009-03-27 08:45:18 51°12.967 2°50.767 12.3 338 6.8 99950 70
2009-03-27 08:45:22 51°12.964 2°50.762 13.2 340 6.8 99950 70
2009-03-27 08:45:28 51°12.96 2°50.755 13.9 339 6.8 99950 70
2009-03-27 08:45:33 51°12.958 2°50.748 14.6 335 6.8 99950 71
2009-03-27 08:45:38 51°12.955 2°50.743 14.2 340 6.8 99950 71
2009-03-27 08:45:43 51°12.951 2°50.738 14.4 337 6.8 99950 70
2009-03-27 08:45:47 51°12.949 2°50.733 13.2 341 6.8 99950 70
2009-03-27 08:45:53 51°12.945 2°50.727 15.5 337 6.8 99950 70
2009-03-27 08:45:58 51°12.942 2°50.721 15.6 340 6.8 99950 70
2009-03-27 08:46:03 51°12.94 2°50.715 13.2 338 6.8 99960 69
2009-03-27 08:46:08 51°12.937 2°50.71 11.7 339 6.8 99960 69
2009-03-27 08:46:13 51°12.934 2°50.705 12.4 337 6.8 99950 69
2009-03-27 08:46:18 51°12.931 2°50.7 13 335 6.8 99950 69
2009-03-27 08:46:23 51°12.928 2°50.695 11.8 339 6.8 99950 69
2009-03-27 08:46:28 51°12.925 2°50.69 11.6 338 6.8 99950 69
2009-03-27 08:46:33 51°12.923 2°50.684 11.9 336 6.8 99960 69
2009-03-27 08:46:38 51°12.92 2°50.679 11.3 335 6.8 99960 69
2009-03-27 08:46:43 51°12.917 2°50.674 11 338 6.8 99950 70
2009-03-27 08:46:48 51°12.914 2°50.669 11.1 334 6.8 99950 70
2009-03-27 08:46:53 51°12.912 2°50.663 10.5 335 6.8 99950 70
2009-03-27 08:46:58 51°12.909 2°50.658 12.2 280 6.8 99950 70
2009-03-27 08:47:03 51°12.906 2°50.652 14.9 336 6.9 99960 71
2009-03-27 08:47:08 51°12.903 2°50.647 14.5 337 6.9 99960 71
2009-03-27 08:47:13 51°12.901 2°50.642 12.7 335 6.9 99960 72
2009-03-27 08:47:18 51°12.898 2°50.637 14.2 336 6.9 99960 72
2009-03-27 08:47:23 51°12.896 2°50.631 12.8 334 6.9 99960 71
2009-03-27 08:47:28 51°12.893 2°50.626 12.9 335 6.9 99960 71
2009-03-27 08:47:33 51°12.89 2°50.621 15.8 337 6.8 99950 70
2009-03-27 08:47:38 51°12.888 2°50.616 13.5 338 6.8 99950 70
2009-03-27 08:47:43 51°12.885 2°50.61 15 334 6.8 99950 69
2009-03-27 08:47:47 51°12.882 2°50.606 13.7 334 6.8 99950 69
2009-03-27 08:47:53 51°12.879 2°50.601 13.6 336 6.8 99950 69
2009-03-27 08:47:58 51°12.876 2°50.596 14.2 338 6.8 99950 69
2009-03-27 08:48:03 51°12.874 2°50.591 15.1 335 6.8 99950 69
2009-03-27 08:48:08 51°12.871 2°50.586 13.1 335 6.8 99950 69
2009-03-27 08:48:13 51°12.869 2°50.581 14.3 333 6.8 99950 69
2009-03-27 08:48:18 51°12.866 2°50.576 13.3 335 6.8 99950 69
2009-03-27 08:48:23 51°12.864 2°50.571 12.8 336 6.8 99950 69
2009-03-27 08:48:28 51°12.861 2°50.566 12 336 6.8 99950 69
2009-03-27 08:48:33 51°12.858 2°50.56 11.6 339 6.8 99960 69
2009-03-27 08:48:38 51°12.856 2°50.555 16.4 331 6.8 99960 69
2009-03-27 08:48:43 51°12.853 2°50.55 14.8 335 6.8 99950 68
2009-03-27 08:48:48 51°12.851 2°50.545 13.2 334 6.8 99950 68
2009-03-27 08:48:53 51°12.849 2°50.539 16 335 6.8 99950 69
2009-03-27 08:48:58 51°12.846 2°50.534 14.5 286 6.8 99950 69
2009-03-27 08:49:03 51°12.844 2°50.528 11.9 336 6.8 99950 69
2009-03-27 08:49:07 51°12.842 2°50.524 12.9 333 6.8 99950 69
2009-03-27 08:49:13 51°12.839 2°50.517 12.9 333 6.8 99940 68
2009-03-27 08:49:18 51°12.837 2°50.512 14.9 331 6.8 99940 68
2009-03-27 08:49:23 51°12.834 2°50.506 14.2 336 6.8 99950 69
2009-03-27 08:49:28 51°12.832 2°50.501 13 332 6.8 99950 69
2009-03-27 08:49:33 51°12.83 2°50.496 12.6 329 6.8 99950 68
2009-03-27 08:49:38 51°12.827 2°50.491 15.4 335 6.8 99950 68
2009-03-27 08:49:43 51°12.825 2°50.487 14.1 337 6.8 99940 68
2009-03-27 08:49:48 51°12.822 2°50.482 14.7 334 6.8 99940 68
2009-03-27 08:49:53 51°12.819 2°50.477 11.9 336 6.8 99940 68
2009-03-27 08:49:58 51°12.817 2°50.472 13.3 335 6.8 99940 68
2009-03-27 08:50:03 51°12.815 2°50.467 13.9 331 6.7 99950 68
2009-03-27 08:50:08 51°12.812 2°50.462 14.6 330 6.7 99950 68
2009-03-27 08:50:13 51°12.81 2°50.457 14.6 337 6.7 99950 67
2009-03-27 08:50:18 51°12.808 2°50.452 13.2 339 6.7 99950 67
2009-03-27 08:50:23 51°12.806 2°50.447 14.3 338 6.8 99940 68
2009-03-27 08:50:27 51°12.804 2°50.443 14.5 339 6.8 99940 68
2009-03-27 08:50:33 51°12.801 2°50.437 14.4 338 6.8 99950 68
2009-03-27 08:50:38 51°12.798 2°50.433 12.2 337 6.8 99950 68
2009-03-27 08:50:43 51°12.795 2°50.428 12.8 337 6.8 99940 68
2009-03-27 08:50:48 51°12.793 2°50.423 13.2 337 6.8 99940 68
2009-03-27 08:50:53 51°12.79 2°50.418 14.1 337 6.8 99950 68
2009-03-27 08:50:58 51°12.787 2°50.414 12.8 278 6.8 99950 68
2009-03-27 08:51:03 51°12.785 2°50.409 13.1 342 6.8 99940 68
2009-03-27 08:51:08 51°12.783 2°50.404 14.4 334 6.8 99940 68
2009-03-27 08:51:13 51°12.78 2°50.399 15.2 334 6.8 99940 67
2009-03-27 08:51:18 51°12.778 2°50.394 12.8 339 6.8 99940 67
2009-03-27 08:51:22 51°12.776 2°50.391 12.9 334 6.7 99950 67
2009-03-27 08:51:28 51°12.773 2°50.385 15.8 331 6.7 99950 67
2009-03-27 08:51:33 51°12.771 2°50.38 12 332 6.7 99940 67
2009-03-27 08:51:38 51°12.768 2°50.375 10.9 334 6.7 99940 67
2009-03-27 08:51:43 51°12.766 2°50.37 11.9 332 6.7 99950 67
2009-03-27 08:51:48 51°12.764 2°50.365 10.5 333 6.7 99950 67
2009-03-27 08:51:53 51°12.761 2°50.36 14.1 333 6.7 99940 67
2009-03-27 08:51:58 51°12.759 2°50.354 11.9 335 6.7 99940 67
2009-03-27 08:52:03 51°12.757 2°50.349 12.9 337 6.8 99950 68
2009-03-27 08:52:08 51°12.755 2°50.343 13.3 335 6.8 99950 68
2009-03-27 08:52:13 51°12.752 2°50.338 12.3 335 6.8 99950 69
2009-03-27 08:52:18 51°12.75 2°50.333 13.8 337 6.8 99950 69
2009-03-27 08:52:23 51°12.748 2°50.328 12.5 337 6.8 99950 69
2009-03-27 08:52:28 51°12.746 2°50.322 14.2 336 6.8 99950 69
2009-03-27 08:52:33 51°12.744 2°50.318 15.5 338 6.8 99950 69
2009-03-27 08:52:38 51°12.741 2°50.312 14.5 336 6.8 99950 69
2009-03-27 08:52:43 51°12.739 2°50.307 15.8 337 6.8 99940 69
2009-03-27 08:52:47 51°12.737 2°50.303 13.3 337 6.8 99940 69
2009-03-27 08:52:53 51°12.734 2°50.298 14 336 6.8 99950 68
2009-03-27 08:52:58 51°12.732 2°50.294 17.4 281 6.8 99950 68
2009-03-27 08:53:03 51°12.729 2°50.289 14.3 339 6.8 99950 68
2009-03-27 08:53:08 51°12.726 2°50.285 14 336 6.8 99950 68
2009-03-27 08:53:13 51°12.724 2°50.28 14.5 337 6.8 99940 68
2009-03-27 08:53:18 51°12.721 2°50.276 13.5 337 6.8 99940 68
2009-03-27 08:53:23 51°12.719 2°50.271 11.9 340 6.8 99950 67
2009-03-27 08:53:28 51°12.717 2°50.266 15.5 337 6.8 99950 67
2009-03-27 08:53:33 51°12.714 2°50.261 12.3 338 6.8 99950 67
2009-03-27 08:53:38 51°12.712 2°50.257 13.8 339 6.8 99950 67
2009-03-27 08:53:43 51°12.709 2°50.252 14.6 338 6.8 99950 67
2009-03-27 08:53:48 51°12.707 2°50.247 14.4 337 6.8 99950 67
2009-03-27 08:53:53 51°12.704 2°50.242 11.6 339 6.7 99940 66
2009-03-27 08:53:58 51°12.702 2°50.238 13.2 339 6.7 99940 66
2009-03-27 08:54:03 51°12.7 2°50.233 11.9 335 6.7 99950 67
2009-03-27 08:54:07 51°12.698 2°50.23 14.4 336 6.7 99950 67
2009-03-27 08:54:13 51°12.695 2°50.224 14.4 337 6.8 99940 67
2009-03-27 08:54:18 51°12.692 2°50.22 15.2 335 6.8 99940 67
2009-03-27 08:54:23 51°12.69 2°50.215 15.4 336 6.8 99950 67
2009-03-27 08:54:28 51°12.688 2°50.211 13.4 336 6.8 99950 67
2009-03-27 08:54:33 51°12.685 2°50.206 12.5 338 6.8 99950 67
2009-03-27 08:54:38 51°12.683 2°50.202 16.3 338 6.8 99950 67
2009-03-27 08:54:43 51°12.681 2°50.199 15.8 340 6.8 99950 66
2009-03-27 08:54:48 51°12.679 2°50.195 15.1 337 6.8 99950 66
2009-03-27 08:54:53 51°12.677 2°50.191 11.9 337 6.8 99950 66
2009-03-27 08:54:58 51°12.675 2°50.187 13.9 277 6.8 99950 66
2009-03-27 08:55:03 51°12.672 2°50.183 11.8 340 6.8 99950 66
2009-03-27 08:55:08 51°12.669 2°50.18 11.4 337 6.8 99950 66
2009-03-27 08:55:13 51°12.668 2°50.175 14.2 339 6.8 99950 67
2009-03-27 08:55:18 51°12.665 2°50.171 12.2 337 6.8 99950 67
2009-03-27 08:55:23 51°12.663 2°50.168 11.9 338 6.8 99950 68
2009-03-27 08:55:27 51°12.661 2°50.164 12.2 341 6.8 99950 68
2009-03-27 08:55:33 51°12.658 2°50.159 10.4 335 6.8 99950 68
2009-03-27 08:55:38 51°12.656 2°50.154 12.2 338 6.8 99950 68
2009-03-27 08:55:43 51°12.654 2°50.15 11.6 339 6.8 99960 68
2009-03-27 08:55:48 51°12.651 2°50.145 10.8 336 6.8 99960 68
2009-03-27 08:55:53 51°12.649 2°50.14 12.9 337 6.8 99950 68
2009-03-27 08:55:58 51°12.647 2°50.135 11 336 6.8 99950 68
2009-03-27 08:56:03 51°12.644 2°50.13 11.7 331 6.8 99960 68
2009-03-27 08:56:08 51°12.642 2°50.125 10 334 6.8 99960 68
2009-03-27 08:56:13 51°12.64 2°50.12 9.4 336 6.8 99950 68
2009-03-27 08:56:18 51°12.638 2°50.115 12.1 338 6.8 99950 68
2009-03-27 08:56:23 51°12.635 2°50.11 12.7 334 6.8 99950 68
2009-03-27 08:56:28 51°12.633 2°50.105 12.9 338 6.8 99950 68
2009-03-27 08:56:33 51°12.631 2°50.1 13.6 335 6.9 99950 69
2009-03-27 08:56:38 51°12.629 2°50.094 11.5 333 6.9 99950 69
2009-03-27 08:56:43 51°12.626 2°50.09 15.5 336 6.9 99950 70
2009-03-27 08:56:48 51°12.624 2°50.084 14.4 335 6.9 99950 70
2009-03-27 08:56:53 51°12.622 2°50.079 14.2 338 6.9 99950 70
2009-03-27 08:56:58 51°12.62 2°50.074 14.9 283 6.9 99950 70
2009-03-27 08:57:03 51°12.618 2°50.069 13 336 6.9 99950 69
2009-03-27 08:57:07 51°12.616 2°50.065 13 334 6.9 99950 69
2009-03-27 08:57:13 51°12.613 2°50.059 14.4 335 6.8 99950 69
2009-03-27 08:57:18 51°12.611 2°50.054 13.1 336 6.8 99950 69
2009-03-27 08:57:23 51°12.609 2°50.049 14.1 337 6.8 99950 69
2009-03-27 08:57:27 51°12.607 2°50.044 14.8 337 6.8 99950 69
2009-03-27 08:57:33 51°12.604 2°50.038 13.6 330 6.8 99960 69
2009-03-27 08:57:38 51°12.602 2°50.033 18 336 6.8 99960 69
2009-03-27 08:57:43 51°12.6 2°50.028 14.4 336 6.8 99950 69
2009-03-27 08:57:48 51°12.597 2°50.024 13.7 336 6.8 99950 69
2009-03-27 08:57:53 51°12.595 2°50.019 13.9 336 6.8 99950 69
2009-03-27 08:57:58 51°12.593 2°50.014 14 334 6.8 99950 69
2009-03-27 08:58:03 51°12.59 2°50.01 13.7 336 6.8 99960 68
2009-03-27 08:58:08 51°12.589 2°50.005 12 337 6.8 99960 68
2009-03-27 08:58:13 51°12.586 2°50.001 11.3 333 6.8 99950 68
2009-03-27 08:58:18 51°12.584 2°49.996 12.7 331 6.8 99950 68
2009-03-27 08:58:22 51°12.582 2°49.992 13.9 330 6.8 99960 68
2009-03-27 08:58:28 51°12.58 2°49.987 15.8 328 6.8 99960 68
2009-03-27 08:58:33 51°12.578 2°49.982 12.5 330 6.8 99950 68
2009-03-27 08:58:38 51°12.576 2°49.978 14.7 331 6.8 99950 68
2009-03-27 08:58:43 51°12.574 2°49.974 11.5 333 6.8 99960 69
2009-03-27 08:58:48 51°12.572 2°49.97 13.3 333 6.8 99960 69
2009-03-27 08:58:53 51°12.57 2°49.966 11.6 333 6.8 99960 69
2009-03-27 08:58:58 51°12.568 2°49.961 15.4 278 6.8 99960 69
2009-03-27 08:59:03 51°12.566 2°49.957 13.3 335 6.8 99960 68
2009-03-27 08:59:08 51°12.564 2°49.952 15.2 335 6.8 99960 68
2009-03-27 08:59:13 51°12.563 2°49.947 13.5 330 6.8 99950 68
2009-03-27 08:59:18 51°12.561 2°49.943 15.2 333 6.8 99950 68
2009-03-27 08:59:22 51°12.56 2°49.939 13.1 331 6.8 99950 69
2009-03-27 08:59:28 51°12.557 2°49.933 13 280 6.8 99950 69
2009-03-27 08:59:33 51°12.556 2°49.929 14.7 336 6.8 99950 69
2009-03-27 08:59:38 51°12.554 2°49.924 13.5 335 6.8 99950 69
2009-03-27 08:59:43 51°12.552 2°49.92 14 338 6.8 99960 68
2009-03-27 08:59:48 51°12.55 2°49.915 13.5 336 6.8 99960 68
2009-03-27 08:59:53 51°12.548 2°49.91 13.3 334 6.8 99950 67
2009-03-27 08:59:58 51°12.546 2°49.906 14.1 338 6.8 99950 67
2009-03-27 09:00:03 51°12.544 2°49.901 11.4 338 6.8 99960 67
2009-03-27 09:00:08 51°12.542 2°49.897 12.6 336 6.8 99960 67
2009-03-27 09:00:13 51°12.54 2°49.892 13.1 342 6.8 99960 67
2009-03-27 09:00:18 51°12.538 2°49.887 12.5 341 6.8 99960 67
2009-03-27 09:00:22 51°12.536 2°49.883 14.5 339 6.8 99960 67
2009-03-27 09:00:28 51°12.533 2°49.878 13.8 341 6.8 99960 67
2009-03-27 09:00:33 51°12.531 2°49.873 12.6 338 6.8 99950 68
2009-03-27 09:00:38 51°12.528 2°49.869 12.8 337 6.8 99950 68
2009-03-27 09:00:43 51°12.526 2°49.864 11.1 338 6.8 99950 68
2009-03-27 09:00:48 51°12.524 2°49.859 11.7 340 6.8 99950 68
2009-03-27 09:00:53 51°12.521 2°49.854 10.7 338 6.8 99950 68
2009-03-27 09:00:58 51°12.519 2°49.848 14.9 285 6.8 99950 68
2009-03-27 09:01:03 51°12.516 2°49.843 13.7 338 6.8 99950 68
2009-03-27 09:01:08 51°12.513 2°49.838 13.6 342 6.8 99950 68
2009-03-27 09:01:13 51°12.511 2°49.833 14.4 337 6.9 99960 69
2009-03-27 09:01:18 51°12.509 2°49.827 14.5 339 6.9 99960 69
2009-03-27 09:01:23 51°12.505 2°49.823 12.8 340 6.8 99950 69
2009-03-27 09:01:28 51°12.502 2°49.819 14.8 338 6.8 99950 69
2009-03-27 09:01:33 51°12.499 2°49.814 13.4 342 6.8 99950 68
2009-03-27 09:01:38 51°12.496 2°49.809 14.8 339 6.8 99950 68
2009-03-27 09:01:42 51°12.494 2°49.805 15.1 338 6.9 99960 69
2009-03-27 09:01:48 51°12.49 2°49.799 16.1 339 6.9 99960 69
2009-03-27 09:01:53 51°12.488 2°49.794 16.4 339 6.9 99950 69
2009-03-27 09:01:58 51°12.484 2°49.789 13.9 281 6.9 99950 69
2009-03-27 09:02:03 51°12.482 2°49.784 14.4 339 6.9 99950 69
2009-03-27 09:02:08 51°12.479 2°49.779 16 341 6.9 99950 69
2009-03-27 09:02:13 51°12.476 2°49.773 15.3 339 6.9 99950 68
2009-03-27 09:02:18 51°12.473 2°49.768 13.3 341 6.9 99950 68
2009-03-27 09:02:23 51°12.47 2°49.763 15.3 339 6.8 99950 68
2009-03-27 09:02:28 51°12.467 2°49.758 11.9 336 6.8 99950 68
2009-03-27 09:02:33 51°12.465 2°49.753 13 337 6.8 99950 67
2009-03-27 09:02:38 51°12.462 2°49.748 13.6 335 6.8 99950 67
2009-03-27 09:02:42 51°12.461 2°49.743 13.3 333 6.8 99960 68
2009-03-27 09:02:48 51°12.458 2°49.737 13 332 6.8 99960 68
2009-03-27 09:02:53 51°12.457 2°49.732 11.3 328 6.9 99960 68
2009-03-27 09:02:58 51°12.455 2°49.727 13.4 301 6.9 99960 68
2009-03-27 09:03:03 51°12.453 2°49.721 12.8 324 6.9 99960 69
2009-03-27 09:03:08 51°12.452 2°49.716 14.3 321 6.9 99960 69
2009-03-27 09:03:13 51°12.451 2°49.711 12.9 321 6.9 99950 69